STARLINK-32133, 60333

Orbit data source: Space-Track

STARLINK-32133, 60333 is a payload satellite owned by SpaceX/Seattle (US) in LEO that was launched on Fri, 02 Aug 2024 UTC via an FALCON 9 launch vehicle from the Air Force Eastern Test Range (AFETR). Payload-class satellites include a variety of spacecraft equipped with specific instruments for various scientific and technological missions. These include communications satellites like Starlink; space stations such as the ISS; scientific satellites like the Hubble; Earth observation satellites from companies like Planet Labs, Umbra, and HawkEye 360; GPS; miniature CubeSats for education and research; and military/defense satellites.

Loading next visibility...
Identifier
60333, 2024-136E
Orbit
LEO
Country
Flag of USUS
Related business
Manufacturer
SpaceX/Seattle
Mission
Operational Commercial Communications
Bus & Motor
STARLINK V2M, Unknown motor
Mass
730 kg wet, ~700 kg dry
Launch date (UTC)
2024-08-02 (2 years ago)
Launch vehicle
FALCON 9
Launch site
Air Force Eastern Test Range (AFETR)
Object type
Payload
Rocket body
Debris
Shape & HBR
Box + 2 Pan, 17.7 m
Radar Cross Section
33.884 m², Large (>1 m²)

Expand to show TLE details & history
Last TLE update: 17 hours ago

TLE from 17 hours ago
0 STARLINK-32133
1 60333U 24136E   26095.02736509 -.00003034  00000-0 -90396-4 0  9998
2 60333  53.1577 313.5702 0000794  87.5110 272.5982 15.30185382 93696
Epoch: 2026-04-05T00:39Z
TLE epoch observation values (Epoch: 2026-04-05T00:39:24.343Z)
Latitude
-0.00001°
Longitude
110.38008°
Altitude
476.134 km
Speed
7.629 km/s
True Right ascension
20h 54m 16s
True Declination
0° 00' 00"
Sunlit
Object was in daylight at epoch
Visualization orbit readout
Latitude
Unknown
Longitude
Unknown
Altitude
Unknown
Speed
Unknown
Apparent Right ascension
Unknown
Apparent Declination
Unknown
Sunlit
N/A
Visualization observer readout
Local Sidereal Time
23:59:47
Azimuth
Unknown
Elevation
Unknown
Doppler factor
Unknown
Orbital elements
Apogee altitude
476.06 km
Perigee altitude
474.971 km
Semi-major axis
6,853.653 km
Eccentricity
0.00008
Inclination
53.1577°
RAAN
313.5702°
Arg. of periapsis
87.511°
True anomaly
272.58911°
Mean anomaly
272.5982°
Eccentric anomaly
272.59366°
Mean motion
3.82525 °/min
Orbital period
94.11 mins
BSTAR
-0.000090396
Loading maneuver chart data...
Computing Atmospheric mass density...
Loading historical data...
Loading historical data...
Loading historical data...
Loading historical data...
Loading historical data...
Loading historical data...
Loading historical data...

Documentation

Showing up to 5 results
|